Hourly Data Report for October 05, 2017

All times are specified in Local Standard Time (LST). Add 1 hour to adjust for Daylight Saving Time where and when it is observed.

BRIER ISLAND
NOVA SCOTIA

44°17'09.000" N
66°20'48.000" W
15.80 m
8200604
71988
WVU

Download Data

Hourly Data (October 2017)
Hourly Data Report for October 5, 2017
Temp Definition
°C
Dew Point Temp Definition
°C
Rel Hum Definition
%
Wind Dir Definition
10's deg

Wind Spd Definition
km/h
Visibility Definition
km
Stn Press Definition
kPa
Hmdx Definition


Wind Chill Definition


Weather Definition


TIME
00:00 14.8 13.6 92 20 18   101.30     LegendNANA
01:00 15.1 13.6 91 20 23   101.23     LegendNANA
02:00 15.1 13.6 91 19 22   101.13     LegendNANA
03:00 15.4 13.7 90 21 20   101.13     LegendNANA
04:00 15.1 13.4 90 21 20   101.14     LegendNANA
05:00 15.0 13.3 90 23 20   101.11     LegendNANA
06:00 14.5 13.0 91 23 21   101.12     LegendNANA
07:00 14.4 13.0 91 24 19   101.16     LegendNANA
08:00 14.5 12.9 90 24 20   101.22     LegendNANA
09:00 15.2 13.2 88 25 23   101.25     LegendNANA
10:00 15.8 13.1 84 25 15   101.30     LegendNANA
11:00 17.4 12.7 74 24 15   101.32     LegendNANA
12:00 16.6 12.5 77 25 12   101.31     LegendNANA
13:00 18.0 12.8 72 24 13   101.23     LegendNANA
14:00 18.3 12.1 67 23 15   101.18     LegendNANA
15:00 17.5 11.5 68 22 21   101.19     LegendNANA
16:00 17.1 11.5 70 22 20   101.16     LegendNANA
17:00 16.2 11.5 73 22 18   101.19     LegendNANA
18:00 15.0 12.0 82 22 18   101.19     LegendNANA
19:00 15.1 12.3 83 21 19   101.21     LegendNANA
20:00 14.9 12.5 85 21 19   101.26     LegendNANA
21:00 15.1 12.9 87 22 19   101.29     LegendNANA
22:00 14.8 12.6 86 20 12   101.29     LegendNANA
23:00 14.9 12.6 86 20 15   101.27     LegendNANA

Notes on Data Quality.

Legend

  • E = Estimated
  • M = Missing
  • NA = Not Available
  • ‡ = Partner data that is not subject to review by the National Climate Archives
Date modified: